Mytilini, Greece

1:38 PM EEST on August 14, 2018 (GMT +0300)
Odysseas Elytis

Weather History for LGMT - May, 2018

Change the Weather History Date:

Wednesday, May 16, 2018

  Actual Average Record
Temperature  
Mean Temperature 80 °F -  
Max Temperature 88 °F 79 °F 88 °F (2018)
Min Temperature 71 °F 63 °F 53 °F (2001)
Cooling Degree Days 14    
Growing Degree Days 30 (Base 50)    
Moisture  
Dew Point 54 °F    
Average Humidity 42    
Maximum Humidity 57    
Minimum Humidity 19    
Precipitation  
Precipitation 0.00 in 0.02 in - ()
Sea Level Pressure  
Sea Level Pressure 29.99 in    
Wind  
Wind Speed 8 mph ()    
Max Wind Speed 14 mph    
Max Gust Speed -    
Visibility 6.4 miles    
Events      
Averages and records for this station are not official NWS values.
T = Trace of Precipitation, MM = Missing Value Source: Averaged Metar Reports

Daily Weather History Graph

Daily Weather History Graph

Search for Another Location

Airport or City:

Astronomy

May. 16, 2018 Rise Set
Actual Time 6:00 AM EEST 8:20 PM EEST
Civil Twilight 5:29 AM EEST 8:50 PM EEST
Nautical Twilight 4:52 AM EEST 9:28 PM EEST
Astronomical Twilight 4:11 AM EEST 10:09 PM EEST
Moon 6:56 AM EEST (5/16) 9:26 PM EEST (5/16)
Length of Visible Light 15h 20m
Length of Day
14h 20m
New Moon, 1% of the Moon is Illuminated
May 16
New Moon
May 22
First Quarter
May 29
Full
Jun 6
Last Quarter
Jun 13
New

Hourly Weather History & Observations

Time (EEST) Temp. Heat Index Dew Point Humidity Pressure Visibility Wind Dir Wind Speed Gust Speed Precip Events Conditions
4:50 AM 71.6 °F - 55.4 °F 57% 29.98 in - ESE 8.1 mph - N/A   Clear
5:20 AM 71.6 °F - 55.4 °F 57% 29.98 in - SE 8.1 mph - N/A   Clear
5:50 AM 71.6 °F - 55.4 °F 57% 29.98 in - SE 4.6 mph - N/A   Clear
6:20 AM 71.6 °F - 55.4 °F 57% 29.98 in - SE 4.6 mph - N/A   Clear
6:50 AM 71.6 °F - 55.4 °F 57% 29.98 in - SSW 5.8 mph - N/A   Clear
7:20 AM 71.6 °F - 55.4 °F 57% 29.98 in 6.2 mi SSW 5.8 mph - N/A   Partly Cloudy
7:50 AM 75.2 °F - 53.6 °F 47% 29.98 in 6.2 mi SE 9.2 mph - N/A   Partly Cloudy
8:20 AM 75.2 °F - 53.6 °F 47% 29.98 in 6.2 mi SE 9.2 mph - N/A   Partly Cloudy
8:50 AM 73.4 °F - 57.2 °F 57% 29.98 in 6.2 mi Variable 3.5 mph - N/A   Partly Cloudy
9:00 AM 73 °F - 57 °F 47% 30.00 in 9 mi South 3.5 mph - -   Scattered Clouds
9:20 AM 73.4 °F - 57.2 °F 57% 29.98 in 6.2 mi ESE 9.2 mph - N/A   Partly Cloudy
9:50 AM 75.2 °F - 57.2 °F 53% 29.98 in 6.2 mi ESE 9.2 mph - N/A   Partly Cloudy
10:20 AM 75.2 °F - 57.2 °F 53% 30.01 in 6.2 mi ESE 9.2 mph - N/A   Partly Cloudy
10:50 AM 75.2 °F - 57.2 °F 53% 30.01 in 6.2 mi SE 8.1 mph - N/A   Partly Cloudy
11:20 AM 75.2 °F - 57.2 °F 53% 30.01 in 6.2 mi SE 8.1 mph - N/A   Partly Cloudy
11:50 AM 77.0 °F - 59.0 °F 54% 30.01 in 6.2 mi SE 8.1 mph - N/A   Partly Cloudy
12:00 PM 77 °F - 59 °F 44% 30.02 in 9 mi SE 8.1 mph - -   Scattered Clouds
12:20 PM 77.0 °F - 59.0 °F 54% 30.01 in 6.2 mi SE 8.1 mph - N/A   Partly Cloudy
12:50 PM 80.6 °F 80.3 °F 53.6 °F 39% 29.98 in 6.2 mi SE 8.1 mph - N/A   Partly Cloudy
1:20 PM 80.6 °F - 50.0 °F 34% 29.98 in 6.2 mi South 9.2 mph - N/A   Partly Cloudy
1:50 PM 84.2 °F - 51.8 °F 33% 30.01 in 6.2 mi SSW 8.1 mph - N/A   Partly Cloudy
2:20 PM 86.0 °F - 51.8 °F 31% 30.01 in 6.2 mi SE 6.9 mph - N/A   Partly Cloudy
2:50 PM 87.8 °F 85.7 °F 53.6 °F 31% 29.98 in 6.2 mi SSW 10.4 mph - N/A   Partly Cloudy
3:00 PM 88 °F - 53 °F 21% 30.00 in 7 mi SSW 10.4 mph - -   Scattered Clouds
3:20 PM 87.8 °F 85.7 °F 53.6 °F 31% 29.98 in 6.2 mi SW 11.5 mph - N/A   Partly Cloudy
3:50 PM 87.8 °F 85.7 °F 53.6 °F 31% 29.98 in 6.2 mi SW 13.8 mph - N/A   Partly Cloudy
4:20 PM 86.0 °F 84.2 °F 53.6 °F 33% 29.98 in 6.2 mi SW 13.8 mph - N/A   Partly Cloudy
4:50 PM 84.2 °F - 50.0 °F 30% 29.98 in 6.2 mi SW 13.8 mph - N/A   Partly Cloudy
5:20 PM 84.2 °F - 50.0 °F 30% 29.98 in 6.2 mi SW 11.5 mph - N/A   Partly Cloudy
5:50 PM 84.2 °F - 48.2 °F 29% 29.98 in 6.2 mi SW 11.5 mph - N/A   Partly Cloudy
6:00 PM 85 °F - 49 °F 19% 29.98 in 7 mi SW 11.5 mph - -   Scattered Clouds
6:20 PM 82.4 °F - 48.2 °F 30% 29.98 in 6.2 mi SW 9.2 mph - N/A   Partly Cloudy
6:50 PM 82.4 °F - 51.8 °F 35% 29.98 in 6.2 mi SW 9.2 mph - N/A   Partly Cloudy
7:20 PM 80.6 °F - 51.8 °F 37% 29.98 in 6.2 mi SW 9.2 mph - N/A   Partly Cloudy
7:50 PM 80.6 °F - 51.8 °F 37% 29.98 in 6.2 mi WSW 9.2 mph - N/A   Partly Cloudy
8:20 PM 80.6 °F - 51.8 °F 37% 29.98 in 6.2 mi WSW 9.2 mph - N/A   Partly Cloudy
8:50 PM 78.8 °F - 50.0 °F 36% 29.98 in 6.2 mi WSW 11.5 mph - N/A   Partly Cloudy
9:00 PM 79 °F - 50 °F 26% 29.99 in 6 mi WSW 11.5 mph - -   Scattered Clouds
9:20 PM 78.8 °F - 50.0 °F 36% 29.98 in 6.2 mi WSW 11.5 mph - N/A   Partly Cloudy
9:50 PM 78.8 °F - 51.8 °F 39% 29.98 in 6.2 mi SW 6.9 mph - N/A   Partly Cloudy
10:20 PM 77.0 °F - 55.4 °F 47% 30.01 in 6.2 mi SW 6.9 mph - N/A   Partly Cloudy
10:50 PM 75.2 °F - 55.4 °F 50% 30.01 in 6.2 mi SW 6.9 mph - N/A   Partly Cloudy